Theta_e
306 306 306 307 307 308 310 312 314 315 316 317 317 316 317 316 315 314 309 309 313 321 319 317 316 318 320 321 320 319 318 318 317 322 327 321 318 320 317 319 321 320 321 318 318 318 318 328 325 328 332 332 331 330
305 305 306 306 307 309 310 311 312 313 314 315 316 315 314 314 314 311 309 310 312 316 319 315 314 315 317 318 317 318 319 319 319 322 326 322 318 320 319 322 321 319 318 321 324 326 328 326 328 327 326 328 329 329
305 307 308 309 310 311 312 312 312 313 312 313 313 312 313 313 313 310 311 312 312 317 319 315 315 316 317 318 317 319 319 320 319 320 317 321 321 317 319 319 322 320 320 321 318 318 320 321 324 323 324 327 326 325
310 311 311 311 311 311 311 311 311 311 311 311 311 312 312 313 310 309 312 312 314 318 319 315 315 317 316 317 317 318 320 318 318 316 317 318 315 316 317 319 320 322 323 321 321 320 320 321 321 322 322 324 325 324
312 312 312 311 311 310 310 310 310 310 311 311 311 312 312 310 308 310 312 312 314 317 319 316 316 316 316 317 317 317 317 318 318 317 317 319 315 317 316 318 318 320 321 321 319 319 320 323 323 321 321 323 325 325
312 312 312 311 310 310 310 310 311 311 311 311 312 311 310 309 309 311 313 312 313 314 318 317 316 316 316 316 317 318 318 318 318 317 317 317 320 317 320 321 321 319 319 318 319 318 318 318 318 317 320 322 323 326
313 311 312 312 311 310 311 312 311 311 310 310 309 309 308 310 312 315 316 314 313 314 320 318 318 316 315 315 316 317 316 317 317 316 316 316 317 315 317 325 322 319 317 317 316 315 316 316 317 317 319 321 321 324
311 311 311 311 311 310 310 309 309 309 308 308 310 311 311 311 311 314 313 312 312 317 318 318 319 318 316 317 318 316 316 316 316 316 317 317 319 318 321 321 321 319 317 317 315 314 314 315 316 318 318 320 322 323
309 310 309 308 309 309 308 309 309 309 310 311 312 311 311 311 316 314 312 312 316 318 322 318 320 319 317 319 319 318 319 319 320 318 318 318 319 320 321 322 321 318 318 317 316 315 314 313 313 314 316 320 321 323
307 307 306 307 308 309 309 309 308 309 309 310 312 315 317 316 311 312 315 317 316 317 318 320 317 321 317 318 319 318 318 319 321 319 320 320 320 319 320 320 320 318 317 315 315 315 315 315 314 315 315 319 320 322
308 307 306 306 307 307 307 307 309 310 310 314 317 317 315 311 316 318 319 319 317 317 316 317 318 319 317 319 319 318 319 319 321 322 322 321 323 321 321 319 318 317 315 314 314 314 313 315 314 314 316 317 318 320
306 306 306 306 307 307 307 308 309 311 315 316 315 315 315 318 319 320 321 320 321 320 318 317 318 318 317 319 320 319 320 321 323 321 321 323 323 323 321 318 316 315 314 313 312 313 313 313 314 315 315 316 317 318
305 305 306 307 306 306 307 308 310 312 315 316 317 316 318 318 324 320 321 322 322 319 319 319 319 319 318 319 318 320 320 322 322 322 323 322 327 322 319 317 316 313 312 312 311 312 312 313 313 314 316 316 317 317
305 306 306 308 309 310 311 311 312 313 315 319 318 319 318 317 317 320 321 322 322 323 323 323 323 319 318 318 322 322 321 324 324 325 323 325 324 320 317 316 314 313 311 311 311 311 312 313 313 313 314 315 315 314
305 307 307 309 310 309 310 311 312 315 318 319 317 317 318 317 318 317 318 319 319 319 320 321 322 322 322 322 323 322 324 324 325 326 321 325 322 318 317 314 313 312 312 311 310 311 311 312 311 313 313 313 311 310
306 307 308 308 310 309 310 312 315 317 316 316 316 317 316 315 316 316 316 317 315 315 317 318 318 316 321 322 323 322 322 329 322 320 324 322 320 317 317 313 312 311 311 310 311 310 309 309 309 310 310 310 309 307
308 313 310 308 309 309 312 312 317 316 316 316 316 315 316 316 316 316 316 315 313 314 317 315 318 316 314 317 320 317 320 318 319 321 320 320 319 317 316 314 311 311 311 311 310 309 308 308 309 309 308 307 306 306
310 311 307 307 309 313 316 317 316 314 314 315 316 315 316 315 316 316 315 317 316 315 312 310 307 310 312 316 316 311 312 312 315 317 317 318 316 314 313 313 311 311 311 311 311 310 309 308 307 307 309 308 308 308
312 310 307 309 312 314 317 315 315 314 314 314 316 315 317 315 315 316 316 315 312 311 310 309 311 312 311 309 310 310 310 311 312 312 312 311 311 311 311 311 311 311 311 312 312 311 310 310 310 309 308 309 309 309
309 308 310 310 312 316 316 315 314 314 314 313 314 313 313 313 313 311 311 311 312 312 311 311 309 309 310 311 311 311 311 309 308 308 309 310 310 309 309 308 308 309 310 310 309 310 311 311 311 310 310 310 309 309
311 312 310 312 316 317 316 314 314 314 313 314 313 312 312 312 313 313 314 312 312 313 314 313 313 313 311 310 309 310 310 309 311 310 310 311 309 309 308 308 308 308 308 307 308 306 307 310 309 309 309 310 310 309
314 311 315 315 317 317 318 316 316 314 315 313 314 313 312 312 311 312 313 312 311 310 312 313 315 314 314 313 311 309 309 308 308 307 306 306 309 308 307 307 307 307 307 307 307 307 306 306 307 307 307 306 307 309
311 312 315 316 318 317 318 317 319 317 317 316 314 313 313 313 312 311 310 311 310 310 311 311 311 310 310 310 310 310 309 309 308 308 308 308 309 308 308 308 308 307 307 307 307 306 306 305 304 305 305 304 306 307
312 316 318 318 318 320 319 319 319 319 319 318 317 315 314 313 313 312 312 311 310 309 310 310 308 309 308 309 309 309 309 308 308 309 309 308 307 307 306 306 306 306 306 306 306 306 305 305 304 304 305 305 305 306
319 317 320 324 318 319 321 322 322 321 317 317 317 317 316 315 313 312 312 312 310 310 310 308 309 310 309 308 308 307 308 307 307 308 307 306 306 306 306 305 306 306 305 306 306 306 305 305 305 305 305 305 305 305
320 320 319 323 322 323 320 319 317 316 315 315 316 316 316 315 314 314 313 312 311 310 311 310 309 309 308 308 308 308 307 308 307 306 306 306 306 307 306 306 305 305 305 306 306 305 305 304 305 305 304 303 302 304
321 323 324 322 322 321 321 318 317 317 316 316 315 315 316 315 314 315 312 311 311 309 309 309 308 308 309 308 308 308 307 307 308 307 306 305 305 305 306 306 306 305 304 304 305 305 304 304 304 303 303 303 302 303
322 322 322 320 319 318 317 317 315 315 316 316 315 315 315 315 316 315 313 310 309 309 309 308 308 308 308 307 307 307 307 306 306 305 304 304 304 304 304 304 304 303 304 304 304 304 304 304 304 304 305 305 304 303
324 322 320 318 316 316 316 315 314 314 313 314 315 316 316 317 315 314 311 310 309 309 309 309 309 309 309 307 306 306 306 306 306 305 305 305 305 304 303 303 303 304 303 303 303 304 304 304 304 304 304 304 305 305
322 320 319 316 316 316 315 313 314 313 314 314 315 315 314 314 313 312 310 309 309 309 309 309 309 309 308 307 306 306 306 306 305 305 306 306 305 304 304 304 304 304 304 304 304 303 302 302 303 303 304 304 305 305
321 320 318 316 316 316 314 313 313 313 312 312 312 313 314 313 311 311 310 309 309 309 309 310 309 309 308 307 306 306 307 306 305 306 306 305 305 305 305 305 305 305 305 305 304 304 304 304 304 304 305 304 306 304
321 318 318 318 318 316 314 315 314 315 314 313 312 312 313 313 312 312 309 309 309 310 310 309 309 309 308 306 305 305 305 306 306 306 305 306 306 306 306 305 306 305 305 305 305 305 305 304 304 303 304 304 305 305
320 319 319 318 317 316 314 315 316 317 317 317 316 315 313 312 313 312 309 309 310 310 310 309 308 307 306 306 305 305 305 305 305 305 305 305 305 304 304 305 305 305 305 305 305 305 305 305 305 305 304 304 304 304
Wind_Speed
29 28 27 26 26 25 24 23 23 22 23 21 21 20 20 17 16 24 8 17 9 2 6 10 12 12 16 13 9 12 9 9 9 6 4 5 5 7 8 1 5 9 7 9 9 13 13 8 5 7 5 3 5 6
30 28 26 26 24 22 22 23 23 23 22 22 23 21 18 17 19 26 7 18 15 2 3 11 17 14 13 10 8 13 4 13 6 5 3 6 4 3 8 6 6 5 5 7 8 6 5 5 7 5 4 4 4 6
28 27 26 25 24 24 25 25 24 24 23 22 21 19 18 16 28 29 17 26 10 1 7 13 11 4 6 4 6 7 5 5 3 2 6 2 5 3 7 8 8 3 3 5 6 4 6 5 6 1 4 4 4 5
28 28 29 28 27 26 25 24 23 23 21 20 19 15 16 18 31 21 11 24 10 1 2 7 7 3 5 3 2 4 8 5 8 6 5 4 6 2 4 4 5 3 9 5 10 12 8 9 7 2 4 2 4 5
30 29 27 26 24 23 22 21 20 19 17 15 14 11 15 29 28 17 11 23 13 2 4 8 10 5 7 8 7 6 7 7 7 5 4 5 3 2 4 4 7 7 7 7 5 4 6 1 6 4 5 5 2 4
28 25 23 20 18 16 14 14 15 16 13 9 12 24 26 26 25 12 3 19 19 14 4 5 8 6 7 8 8 8 8 7 6 5 4 3 3 3 4 5 3 4 5 6 6 3 3 7 3 4 6 4 2 2
19 17 17 12 7 4 3 9 13 19 26 25 26 25 25 23 15 2 1 6 15 10 3 8 7 6 9 11 6 6 7 5 5 5 3 6 5 4 7 7 5 5 6 5 1 2 5 6 7 8 5 5 3 8
10 12 16 18 17 15 14 16 18 19 22 24 26 23 21 11 3 2 3 6 9 8 3 2 4 8 9 7 5 5 5 5 5 5 3 6 7 5 4 8 9 6 6 7 6 5 7 3 7 8 7 6 8 8
13 15 18 19 18 17 17 18 20 23 25 22 18 18 7 2 3 5 7 9 7 5 5 2 7 6 9 7 4 5 5 6 3 5 8 6 7 7 5 7 9 8 9 8 7 6 6 8 9 9 9 9 6 11
12 14 14 15 16 15 14 15 16 17 15 12 5 5 3 4 5 5 5 6 5 3 3 3 3 6 10 6 6 4 4 4 4 6 3 6 10 11 11 5 8 9 9 4 7 9 8 9 9 10 9 10 6 6
6 7 7 8 8 8 10 11 12 12 8 4 2 2 4 7 4 3 3 4 4 3 4 6 5 4 7 7 6 4 2 2 3 5 5 3 4 8 8 8 7 7 5 3 3 2 2 2 5 5 4 8 4 4
2 2 4 5 6 8 9 10 10 3 6 2 2 5 4 3 3 3 3 3 4 3 3 8 6 2 4 4 4 4 4 3 4 6 3 3 7 10 12 11 9 8 5 4 3 4 3 4 4 3 3 7 8 5
1 3 6 8 9 7 6 4 7 5 9 4 3 1 2 2 1 3 3 2 2 3 3 4 6 6 3 5 3 4 6 5 7 5 4 4 12 11 12 11 10 10 6 7 4 3 3 3 4 5 3 4 3 8
3 7 12 10 7 3 1 1 4 8 4 2 2 0 3 2 1 2 4 4 4 4 6 3 3 4 3 5 4 5 5 3 5 5 5 8 13 13 12 11 12 10 8 6 6 5 3 3 4 3 1 3 6 8
4 10 12 7 3 2 3 5 7 5 4 2 3 3 4 3 5 5 6 3 4 4 5 1 1 2 4 4 4 4 5 5 4 5 5 12 16 15 13 12 13 11 8 8 8 9 7 6 5 6 5 6 8 10
5 8 9 9 4 4 7 6 4 3 2 2 2 3 1 1 1 1 2 4 5 5 2 2 2 2 3 4 5 6 2 3 2 3 8 13 16 14 13 15 13 14 15 14 13 13 11 9 10 11 11 8 10 11
3 2 7 12 6 6 5 4 3 1 1 1 1 1 2 1 3 3 1 2 1 2 2 2 3 1 2 3 2 3 5 4 8 4 8 13 14 13 12 17 18 17 14 16 16 14 15 13 13 13 14 12 10 8
3 3 10 10 3 7 4 4 2 2 2 0 2 6 4 2 5 3 1 4 4 2 1 1 1 1 1 2 0 2 2 3 4 5 9 11 12 15 16 16 16 16 16 12 16 17 15 14 13 10 10 11 13 11
4 8 9 3 2 4 2 2 3 1 3 4 5 6 3 2 4 6 4 4 8 8 5 2 1 1 1 2 3 2 2 1 3 6 9 18 20 19 16 12 9 8 8 11 12 12 14 8 13 12 13 12 10 9
10 9 5 1 2 4 2 3 3 2 1 1 1 4 5 6 5 5 5 4 3 3 3 2 0 2 1 1 2 3 5 5 7 9 8 8 17 17 12 11 10 9 9 8 8 12 14 11 11 7 8 8 11 12
5 4 3 3 4 4 3 1 1 3 4 3 4 3 2 6 7 7 5 4 2 2 3 2 5 4 7 8 9 12 11 11 7 8 8 7 8 11 10 6 9 9 11 10 8 6 4 18 9 16 12 10 10 7
1 2 2 2 3 2 2 1 3 1 2 2 4 4 3 3 5 4 7 7 3 2 2 4 8 7 8 9 13 15 18 20 20 21 20 17 4 5 8 10 9 8 7 8 8 6 8 7 11 7 9 11 9 12
1 2 2 2 2 1 2 2 1 2 1 1 1 1 2 2 3 4 3 6 6 7 12 10 13 15 16 18 16 21 21 23 19 18 17 16 16 16 12 11 7 6 7 9 6 1 9 6 7 1 4 5 14 9
2 3 2 1 2 1 1 2 2 2 2 2 3 1 2 3 3 3 3 5 7 10 9 11 13 9 11 12 7 10 17 16 14 15 19 17 10 7 5 6 7 4 8 8 11 7 4 4 3 6 2 5 4 4
3 2 3 2 2 3 4 3 4 4 3 3 2 2 3 4 3 3 4 5 7 9 8 10 9 7 7 7 10 8 3 2 8 7 6 9 8 8 5 6 5 4 5 4 3 4 3 1 4 2 6 2 7 3
3 5 4 4 4 3 3 3 4 1 2 1 4 3 4 3 1 2 5 7 8 9 8 7 6 5 5 8 6 8 6 2 6 6 4 3 3 4 4 5 5 4 5 6 6 4 6 4 3 5 4 7 6 4
3 3 4 3 3 3 5 4 2 2 2 0 3 2 4 3 3 3 6 9 8 15 11 9 7 7 7 9 8 6 6 6 6 4 6 6 5 3 3 8 6 4 5 3 5 5 8 5 5 7 4 4 7 9
4 3 3 5 3 3 3 5 2 2 2 3 2 2 1 3 3 5 7 13 15 16 14 12 9 9 9 9 8 7 6 7 8 7 9 9 8 8 7 8 7 5 8 7 5 6 8 7 2 5 3 4 1 4
4 4 3 4 3 2 2 3 4 4 4 4 2 3 4 3 3 4 13 16 17 16 14 12 7 5 8 8 7 8 10 10 11 9 8 7 9 10 11 11 10 7 8 9 3 5 8 9 7 4 9 11 10 4
4 5 3 0 3 3 4 4 5 3 3 4 3 5 6 6 4 9 15 17 16 14 13 12 10 10 10 10 9 8 10 11 12 11 7 8 11 11 11 9 8 8 6 6 6 3 1 5 7 8 6 7 8 4
1 2 2 2 2 4 4 4 3 3 2 3 2 4 6 5 8 11 13 15 15 14 14 13 11 11 11 11 11 10 10 11 10 6 7 14 12 10 8 7 8 8 9 7 7 8 8 9 7 9 9 16 7 2
3 3 3 2 3 3 1 3 1 2 4 3 5 5 6 6 6 6 14 15 14 13 10 9 11 10 10 12 13 11 7 12 10 10 8 6 9 6 5 7 5 3 6 6 2 5 8 9 5 4 3 5 2 4
1 3 3 1 2 3 4 3 2 2 3 2 3 4 5 4 4 5 15 16 13 12 14 13 10 12 13 14 14 15 13 12 10 9 5 1 2 4 7 10 3 3 4 3 1 2 4 6 8 9 9 8 5 4
Wind_Direction
310 307 303 300 298 294 287 286 288 284 279 278 279 276 268 258 246 214 200 184 167 259 315 310 304 285 227 201 160 161 179 194 194 177 192 258 280 174 244 278 175 213 203 226 232 259 239 4 252 270 50 76 27 10
310 307 304 304 304 301 293 287 284 283 279 277 276 271 263 248 235 200 159 188 189 207 258 271 289 305 311 334 181 157 271 175 197 145 163 261 216 153 222 188 180 252 273 333 336 36 72 53 38 46 13 350 13 342
316 312 308 304 301 296 291 286 283 280 276 274 270 262 252 247 211 189 166 165 160 164 238 224 227 278 305 352 113 180 212 124 108 36 175 232 226 256 201 237 175 221 268 262 303 251 263 217 136 299 355 7 12 354
312 308 304 301 297 293 289 286 283 277 273 268 265 248 236 218 185 173 155 166 149 195 189 178 175 214 275 143 141 358 99 144 129 215 162 210 228 188 275 25 248 73 148 238 262 266 272 238 246 264 324 313 339 0
312 309 303 298 294 291 289 288 283 276 268 259 254 247 204 170 169 167 144 168 167 280 190 150 136 166 169 153 151 176 173 176 191 190 203 211 226 158 241 292 240 194 225 233 262 32 302 51 53 139 255 305 339 359
314 310 305 299 294 293 294 290 285 271 252 219 179 153 149 153 158 133 107 198 232 230 277 139 79 157 143 145 162 171 177 203 213 229 219 95 55 257 207 243 208 280 178 256 266 42 323 295 182 249 260 256 352 71
321 326 322 308 305 331 29 104 107 114 123 130 134 138 141 142 133 279 136 148 196 216 240 150 145 164 147 147 157 171 185 204 228 211 228 206 178 216 252 231 229 214 196 205 217 195 236 233 252 236 227 206 177 108
24 37 53 73 93 99 105 109 110 113 118 122 121 128 142 141 162 185 94 164 187 250 258 185 101 154 191 174 161 170 166 175 197 221 156 219 138 228 244 238 245 201 195 188 203 219 272 203 207 214 226 254 168 128
63 75 74 80 101 104 106 105 110 117 122 115 119 127 140 232 217 84 142 163 225 280 304 180 154 156 179 216 109 197 204 193 115 227 217 201 209 212 228 217 196 201 201 210 212 242 255 256 262 246 226 238 221 169
81 84 89 93 100 105 106 112 115 127 141 144 149 197 139 94 136 152 184 181 203 230 251 252 178 143 184 170 182 168 209 173 208 198 127 235 244 233 212 211 177 186 204 228 255 256 245 255 237 231 203 232 218 197
89 94 89 88 107 120 131 133 132 133 143 260 268 62 90 138 234 216 177 165 175 204 221 238 219 152 195 184 159 176 266 206 229 180 219 260 255 214 151 142 143 147 188 205 310 316 247 303 297 234 198 254 189 192
97 104 104 108 115 128 138 146 151 263 309 306 44 115 152 242 225 245 191 171 211 208 163 218 186 115 165 123 173 217 193 243 222 151 199 234 225 120 138 148 162 159 149 138 127 159 167 234 196 162 164 202 198 127
115 125 126 122 119 125 142 186 265 265 332 257 248 179 199 185 294 184 178 258 202 148 201 195 197 142 196 198 152 207 227 216 132 184 216 241 126 144 148 153 150 117 141 125 130 154 182 195 188 222 184 169 164 134
149 148 142 132 119 106 6 251 281 314 285 244 216 59 257 201 284 344 351 33 33 13 21 342 278 181 238 222 165 222 200 146 203 198 228 155 147 146 147 147 142 136 132 130 111 105 86 130 147 177 156 153 141 121
166 165 163 161 136 36 343 299 297 288 283 332 61 22 13 18 19 18 354 50 24 348 337 324 313 295 222 230 215 230 199 221 183 198 244 122 142 144 143 140 128 143 140 140 129 111 109 99 108 122 117 120 113 122
147 161 198 219 228 325 337 318 289 275 339 66 128 158 198 105 319 32 2 50 360 338 347 39 55 14 262 289 223 213 225 168 215 215 116 137 141 145 144 140 138 125 121 116 121 112 113 104 108 106 108 107 127 125
203 254 223 208 230 305 322 298 257 254 84 149 111 208 209 348 53 117 220 132 95 342 31 352 199 200 313 268 271 11 1 354 329 90 141 137 142 145 149 123 136 146 135 125 125 121 122 120 111 117 120 132 124 121
254 228 179 185 272 298 237 235 281 29 79 74 286 38 47 301 87 127 222 147 168 130 83 76 16 88 258 282 83 3 341 346 321 333 132 135 137 143 127 137 158 145 146 138 123 124 134 142 141 135 132 134 139 141
170 160 156 171 308 283 259 108 323 211 54 37 328 91 74 55 46 59 64 82 84 90 118 123 35 352 344 275 267 249 238 359 75 79 77 73 85 86 89 96 99 108 122 144 153 142 141 157 127 151 156 162 159 145
171 162 163 352 262 286 293 105 291 336 129 134 306 50 41 59 92 86 90 92 123 116 67 78 188 246 247 314 44 75 103 95 90 84 79 82 99 111 129 147 147 146 149 123 133 147 143 145 133 139 132 155 160 158
140 225 275 324 214 267 300 242 152 347 86 203 62 336 157 160 155 146 106 124 117 64 93 126 107 106 148 118 91 91 125 144 141 122 113 104 111 132 143 157 171 173 164 163 148 135 111 138 140 150 153 151 157 142
156 229 278 234 273 167 273 110 339 80 256 76 159 159 261 113 93 85 152 106 96 75 105 100 108 116 114 118 114 108 101 95 102 105 104 99 91 139 155 166 173 179 162 160 158 153 137 134 142 161 149 157 176 143
162 294 269 264 271 70 237 265 320 256 203 182 217 165 132 135 80 224 84 77 75 79 99 95 107 102 104 117 135 135 131 134 139 144 157 167 182 192 168 180 185 176 151 166 148 114 117 134 167 136 156 197 136 171
295 271 267 261 235 268 39 289 241 263 248 223 186 170 134 97 195 103 100 122 107 107 109 144 136 130 128 143 125 130 154 158 152 165 180 184 160 130 145 141 143 146 163 153 147 158 188 132 118 186 279 126 144 158
244 257 187 253 219 228 223 198 227 226 214 114 132 143 127 200 174 111 132 137 158 144 157 178 165 152 156 131 120 109 286 131 127 130 134 140 145 140 131 108 103 134 152 182 172 111 88 179 129 126 250 197 81 180
252 192 194 214 181 228 249 267 187 347 60 103 92 95 184 195 164 146 135 155 163 153 181 176 171 144 132 133 141 150 156 157 122 117 123 121 131 131 155 155 165 151 133 172 97 217 205 102 153 179 181 185 171 198
265 176 202 240 276 260 261 210 284 286 8 157 113 153 179 212 129 80 121 150 155 161 176 165 168 164 144 134 120 123 134 108 114 105 97 44 39 11 52 124 148 152 138 145 137 158 163 193 160 205 220 179 171 199
254 282 262 171 238 242 314 299 292 335 353 57 222 156 269 47 73 100 140 152 152 157 167 171 193 159 154 150 142 150 141 119 124 126 115 108 97 88 83 88 104 91 89 113 123 122 108 112 86 71 89 351 163 172
246 244 265 279 255 228 253 333 344 37 13 289 275 42 83 70 102 142 148 153 158 163 169 173 171 163 123 143 154 162 162 169 149 149 141 129 124 110 111 118 135 144 132 145 137 58 116 143 202 208 162 186 229 216
222 216 264 156 323 19 51 358 50 44 27 25 99 128 119 109 103 151 158 159 165 173 171 172 168 173 168 169 156 164 172 163 164 166 165 150 138 144 145 152 153 156 162 160 150 137 36 264 243 237 113 322 293 222
54 233 275 292 59 53 87 96 104 102 103 101 338 84 107 123 145 171 171 170 172 174 181 169 179 193 175 165 155 178 164 167 156 143 142 129 141 164 167 179 199 200 197 206 178 202 218 238 264 281 142 177 225 152
181 258 284 259 134 115 194 229 196 145 126 149 129 123 151 163 142 169 185 181 188 187 169 174 189 177 180 159 163 164 141 135 147 149 159 167 147 149 183 234 231 208 210 219 154 120 203 220 217 263 295 302 303 179
179 183 274 256 146 195 184 222 204 211 200 204 163 172 191 187 148 163 188 195 198 191 177 196 183 167 162 166 165 147 163 155 144 145 148 204 340 313 312 296 198 216 230 247 214 117 119 146 174 195 208 205 199 199